Retour au catalogue

FENGYUN 1C DEB

ActifSSO
NORAD 29988·DEBRIS·🇨🇳 China

Lancé May 10, 1999 depuis Taiyuan Satellite Launch Center

Loading…

Prochains Passages (prochaines 24 heures)

TLE

FraisSource: Space-Track

Époque: Sep 14, 2026, 07:02 UTC

1 29988U 99025LN  26257.29309301  .00004453  00000-0  97429-3 0  9990
2 29988  98.7080  16.3880 0112081 259.5455 128.9661 14.54432211 20657

Suivez FENGYUN 1C DEB en temps réel avec AllMySat

Download on the App Store